Regional Weather Roundup
Issued by NWS

Home | Current Version | Previous Version | Graphics & Text | Print | Product List | Glossary On
Versions: 1 2 3 4 5 6 7 8 9 10 11 12 13 14 15 16 17 18 19 20 21 22 23 24 25 26 27 28 29 30 31 32 33 34 35 36 37 38 39 40 41 42 43 44 45 46 47 48 49 50
000
ASUS45 KCYS 041610
RWRWY

WYOMING REGIONAL WEATHER ROUNDUP
NATIONAL WEATHER SERVICE CHEYENNE WY
1000 AM MDT FRI SEP 04 2015

NOTE:  "FAIR" INDICATES FEW OR NO CLOUDS BELOW 12,000 FEET
WITH NO SIGNIFICANT WEATHER AND/OR OBSTRUCTIONS TO VISIBILITY.

WYZ001-041700-
YELLOWSTONE NATIONAL PARK

CITY           SKY/WX    TMP DP  RH WIND       PRES   REMARKS
LK YELLOWSTONE   N/A     60  39  45 VRB3      30.04S
W YELLOWSTONE  NOT AVBL

$$
WYZ002>013-054>058-071-098>099-041700-
NORTHERN WYOMING

CITY           SKY/WX    TMP DP  RH WIND       PRES   REMARKS
JACKSON        FAIR      59  45  58 S3        29.98S
CODY           FAIR      55  46  71 NE9       29.96F
GREYBULL       FAIR      62  44  51 NW7       29.92S
WORLAND        FAIR      63  45  51 N6        29.93S
SHERIDAN       FAIR      65  44  46 NW5       29.94F
BUFFALO        FAIR      65  45  48 VRB6      29.98S
GILLETTE       FAIR      68  49  50 N5        29.92F
HULETT         FAIR      70  52  52 NW6       29.93R
NEWCASTLE      FAIR      73  41  31 CALM      29.91S

$$
WYZ014>020-022>026-101>103-041700-
CENTRAL WYOMING

CITY           SKY/WX    TMP DP  RH WIND       PRES   REMARKS
BIG PINEY      FAIR      61  36  39 S6        30.07F
PINEDALE       FAIR      66  32  28 S12G17    30.08S
DUBOIS         CLOUDY    54  34  47 W3        30.04F
LANDER         FAIR      68  40  35 NW6       29.94S
RIVERTON       FAIR      68  41  37 VRB3      29.95F
CASPER         FAIR      76  41  28 SW14      29.98S
DOUGLAS        FAIR      75  48  38 NW5       29.96S

$$
WYZ021-027>030-104>119-041700-
SOUTHERN WYOMING

CITY           SKY/WX    TMP DP  RH WIND       PRES   REMARKS
EVANSTON       FAIR      69  30  23 S23G31    30.04F
KEMMERER       FAIR      66  30  26 S14G20    30.07F
FORT BRIDGER   SUNNY     72  30  21 SW20G29   30.09S
ROCK SPRINGS   FAIR      68  37  32 N3        30.07F
DIXON          FAIR      70  42  36 S16       30.12S
RAWLINS        FAIR      74  37  26 SW20      30.09R
SARATOGA       FAIR      63  45  51 S12       30.13S
LARAMIE        FAIR      65  45  48 VRB7      30.15R
CHEYENNE       FAIR      79  38  22 W17       30.06S
TORRINGTON     FAIR      74  49  41 VRB3      29.92R
PINE BLUFFS    FAIR      81  37  21 W7        30.01R

$$


USA.gov is the U.S. government's official web portal to all federal, state and local government web resources and services.